Regional Weather Roundup
Issued by NWS Binghamton, NY

Current Version | Previous Version | Text Only | Print | Product List | Glossary On
Versions: 1 2 3 4 5 6 7 8 9 10 11 12 13 14 15 16 17 18 19 20 21 22 23 24 25 26 27
000
ASUS41 KBGM 270510
RWRBGM

REGIONAL WEATHER ROUNDUP
NATIONAL WEATHER SERVICE BINGHAMTON NY
100 AM EDT THU APR 27 2017

Note: "fair" indicates few or no clouds below 12,000 feet with no
significant weather and/or obstructions to visibility.

* = Station(s) that does not report precipitation, such as rain,
snow, etc, also no thunder or fog.

NYZ009-015>018-022>025-036-037-044>046-055>057-062-270600
...Central New York...

CITY           SKY/WX    TMP DP  RH WIND       PRES   REMARKS
Binghamton     CLEAR     57  54  89 S8        29.81R
Cortland       FAIR      59  54  82 CALM      29.79S
Dansville      CLEAR     62  54  74 S7        29.74R
Elmira         CLEAR     55  51  86 CALM      29.76S
Seneca Falls   CLEAR     61  57  88 S6        29.74R
Ithaca         CLEAR     62  55  77 SE10      29.78S
Hamilton       CLEAR     55  52  88 CALM      29.81R
Monticello     CLOUDY    55  55 100 SW3       29.87S VSB 3/4
Norwich        CLEAR     55  52  88 CALM      29.82R
Penn Yan       CLEAR     60  52  74 SW5       29.75R
Rome           CLEAR     59  55  87 E7        29.79S
Sidney         PTCLDY    57  57 100 NW3       29.83R
Syracuse       PTCLDY    58  56  93 E6        29.74S
$$

PAZ038>040-043-044-047-048-072-270600
...Northeast Pennsylvania...

CITY           SKY/WX    TMP DP  RH WIND       PRES   REMARKS
Hazleton       CLOUDY    57  55  94 SE3       29.88R
Scranton       PTCLDY    60  55  83 CALM      29.83R
$$
&&
KEY
WCI = Wind Chill Index
VSB = Visibility
HX  = Heat Index
$$




USA.gov is the U.S. government's official web portal to all federal, state and local government web resources and services.